VR2R-13 Weather Reports


Display with metric or nautical units.
time (UTC)temp
F
wind
direction
speed
MPH
gust
MPH
rain 1hr
in
rain 24hr
in
rain mn
in
humidity
%
barometer
mb
20260508221320 63 45 21.0 27.0 0.03 0.03 0.00 97 914.9
20260508221222 63 71 19.0 27.0 0.03 0.03 0.00 97 914.9
20260508220820 63 74 21.0 27.0 0.03 0.03 0.00 97 914.8
20260508220622 63 76 21.0 28.0 0.03 0.03 0.00 97 914.8
20260508220320 63 71 22.0 28.0 0.02 0.02 0.00 97 915.0
20260508220022 63 70 20.0 28.0 0.02 0.02 0.00 97 914.9
20260508215820 63 76 21.0 28.0 0.02 0.02 0.00 97 914.7
20260508215422 63 71 21.0 29.0 0.02 0.02 0.00 97 914.8
20260508215320 63 79 21.0 29.0 0.02 0.02 0.00 97 914.6
20260508214822 63 67 24.0 29.0 0.02 0.02 0.00 97 914.6
20260508214820 63 71 24.0 29.0 0.02 0.02 0.00 97 914.6
20260508214320 63 62 22.0 29.0 0.01 0.01 0.00 97 914.4
20260508214222 63 71 21.0 28.0 0.01 0.01 0.00 97 914.2
20260508213820 63 71 22.0 28.0 0.01 0.01 0.00 97 914.6
20260508213622 63 65 21.0 28.0 0.01 0.01 0.00 97 914.7
20260508213320 63 64 22.0 27.0 0.01 0.01 0.00 97 914.5
20260508213022 63 59 22.0 28.0 0.01 0.01 0.00 97 914.4
20260508212821 63 77 24.0 28.0 0.01 0.01 0.00 97 914.4
20260508212421 63 84 21.0 28.0 0.00 0.00 0.00 97 914.5
20260508212320 63 78 23.0 28.0 0.00 0.00 0.00 97 914.5
20260508211823 63 70 0.0 0.0 0.00 0.00 0.00 97 914.5
20260508211821 63 56 0.0 0.0 0.00 0.00 0.00 97 914.4
20260508211222 64 63 19.0 28.0 0.01 0.01 0.00 97 914.6
20260508210820 64 66 21.0 29.0 0.01 0.01 0.00 97 914.4
20260508210621 64 66 22.0 29.0 0.01 0.01 0.00 97 914.4
20260508210320 64 71 22.0 29.0 0.01 0.01 0.00 97 914.2
20260508210022 64 79 23.0 29.0 0.01 0.01 0.00 97 914.1
20260508205820 64 74 20.0 29.0 0.01 0.01 0.00 97 914.1
20260508205421 64 81 23.0 29.0 0.01 0.01 0.00 97 913.8
20260508205320 64 84 22.0 29.0 0.01 0.01 0.00 97 913.9
20260508204822 64 97 22.0 28.0 0.01 0.01 0.00 97 914.1
20260508204820 64 42 22.0 28.0 0.01 0.01 0.00 97 914.0
20260508204320 64 63 20.0 29.0 0.00 0.00 0.00 97 914.1
20260508204221 64 68 19.0 29.0 0.00 0.00 0.00 97 914.2
20260508203820 64 65 21.0 29.0 0.00 0.00 0.00 97 914.0
20260508203621 64 63 21.0 29.0 0.00 0.00 0.00 97 914.0
20260508203320 64 83 24.0 29.0 0.07 0.07 0.00 97 913.9
20260508203021 64 80 24.0 29.0 0.07 0.07 0.00 97 913.6
20260508202820 64 89 23.0 28.0 0.07 0.07 0.00 97 913.6
20260508202421 64 70 24.0 32.0 0.06 0.06 0.00 97 913.8
20260508202320 64 73 24.0 32.0 0.06 0.06 0.00 97 913.8
20260508201821 64 73 26.0 32.0 0.06 0.06 0.00 97 913.7
20260508201320 64 74 26.0 31.0 0.06 0.06 0.00 97 913.7
20260508201221 64 72 26.0 31.0 0.05 0.05 0.00 97 913.5
20260508200820 64 73 24.0 30.0 0.05 0.05 0.00 97 913.6
20260508200621 64 64 23.0 29.0 0.05 0.05 0.00 97 914.0
20260508200320 64 80 22.0 29.0 0.05 0.05 0.00 98 913.8
20260508195819 64 68 23.0 29.0 0.03 0.03 0.00 98 913.7
20260508195421 64 71 23.0 29.0 0.03 0.03 0.00 98 913.8
20260508195319 64 69 24.0 30.0 0.03 0.03 0.00 98 913.9
20260508194821 64 86 23.0 30.0 0.03 0.03 0.00 98 913.9
20260508194819 64 80 23.0 30.0 0.03 0.03 0.00 98 913.9
20260508194319 64 32 21.0 28.0 0.02 0.02 0.00 98 913.8
20260508194221 64 82 21.0 28.0 0.01 0.01 0.00 98 913.9
20260508193819 65 92 22.0 28.0 0.01 0.01 0.00 98 913.9
20260508193620 65 66 22.0 26.0 0.00 0.00 0.00 98 914.1
20260508193319 65 85 7.0 26.0 0.00 0.00 0.00 98 913.8
20260508193020 65 81 20.0 26.0 0.00 0.00 0.00 98 914.0
20260508192819 64 62 2.0 19.0 0.00 0.00 0.00 98 914.1
20260508192420 65 73 24.0 30.0 0.03 0.03 0.00 98 913.7
20260508192319 65 91 25.0 30.0 0.03 0.03 0.00 98 913.8
20260508191821 65 56 20.0 27.0 0.02 0.02 0.00 98 913.9
20260508191819 65 78 20.0 27.0 0.02 0.02 0.00 98 914.1
20260508191319 65 78 20.0 27.0 0.01 0.01 0.00 98 914.2
20260508191220 65 78 20.0 27.0 0.01 0.01 0.00 98 914.2
20260508190819 65 60 20.0 27.0 0.00 0.00 0.00 98 914.2
20260508190620 65 84 21.0 27.0 0.00 0.00 0.00 98 913.7
20260508190320 65 74 21.0 27.0 0.11 0.11 0.00 98 913.8
20260508190020 65 85 19.0 26.0 0.10 0.10 0.00 98 914.0
20260508185819 65 45 20.0 26.0 0.09 0.09 0.00 98 914.0
20260508185420 65 74 18.0 28.0 0.07 0.07 0.00 98 914.1
20260508185319 65 89 18.0 28.0 0.07 0.07 0.00 98 914.0
20260508184821 65 66 22.0 28.0 0.06 0.06 0.00 98 914.1
20260508184819 65 54 22.0 28.0 0.06 0.06 0.00 98 914.1
20260508184319 65 74 18.0 26.0 0.05 0.05 0.00 98 914.4
20260508184220 65 73 19.0 26.0 0.05 0.05 0.00 98 914.4
20260508183819 65 56 20.0 29.0 0.03 0.03 0.00 98 914.2
20260508183620 65 75 19.0 29.0 0.03 0.03 0.00 98 914.2
20260508183319 65 83 20.0 29.0 0.02 0.02 0.00 98 914.3
20260508183020 65 69 21.0 29.0 0.02 0.02 0.00 98 914.4
20260508182819 66 60 19.0 28.0 0.01 0.01 0.00 98 914.2
20260508182420 66 78 20.0 28.0 0.01 0.01 0.00 98 914.2
20260508182319 66 83 20.0 28.0 0.01 0.01 0.00 98 914.0
20260508181820 66 64 2.0 27.0 0.00 0.00 0.00 98 914.3
20260508181319 66 69 21.0 29.0 0.06 0.06 0.00 98 914.3
20260508181220 66 83 21.0 29.0 0.06 0.06 0.00 98 914.3
20260508180820 66 73 20.0 29.0 0.02 0.02 0.00 98 914.3
20260508180620 66 90 20.0 29.0 0.02 0.02 0.00 98 914.2
20260508180319 66 40 17.0 22.0 0.01 0.01 0.00 98 914.3
20260508180020 66 82 17.0 22.0 0.00 0.00 0.00 98 914.4
20260508175420 66 75 17.0 24.0 0.03 0.03 0.00 98 914.5
20260508175318 66 70 17.0 24.0 0.03 0.03 0.00 98 914.5
20260508174820 66 68 19.0 23.0 0.02 0.02 0.00 98 914.5
20260508174818 66 60 19.0 23.0 0.02 0.02 0.00 98 914.4
20260508174318 66 52 14.0 19.0 0.01 0.01 0.00 98 914.6
20260508174220 66 77 15.0 19.0 0.01 0.01 0.00 98 914.6
20260508173818 65 75 13.0 18.0 0.00 0.00 0.00 98 914.8
20260508173619 65 56 12.0 18.0 0.00 0.00 0.00 98 914.9
20260508173318 65 77 14.0 18.0 0.00 0.00 0.00 98 914.8
20260508173019 65 66 2.0 17.0 0.00 0.00 0.00 98 914.8
20260508172818 65 80 15.0 22.0 0.02 0.02 0.00 97 914.8
20260508172420 65 69 18.0 22.0 0.02 0.02 0.00 98 914.8
20260508172318 65 76 17.0 22.0 0.02 0.02 0.00 98 914.8
20260508171820 65 92 16.0 22.0 0.02 0.02 0.00 98 914.8
20260508171318 65 80 18.0 22.0 0.02 0.02 0.00 98 914.9
20260508171219 65 79 18.0 22.0 0.01 0.01 0.00 98 914.7
20260508170818 65 86 17.0 31.0 0.01 0.01 0.00 98 914.8
20260508170619 65 86 17.0 31.0 0.01 0.01 0.00 98 914.7
20260508170318 65 89 19.0 31.0 0.01 0.01 0.00 97 914.6
20260508170019 65 95 18.0 24.0 0.01 0.01 0.00 98 914.5
20260508165818 66 77 16.0 24.0 0.01 0.01 0.00 98 914.8
20260508165419 66 83 15.0 22.0 0.01 0.01 0.00 98 914.8
20260508165318 66 77 16.0 22.0 0.01 0.01 0.00 98 914.8
20260508164820 65 81 5.0 13.0 0.00 0.00 0.00 98 915.0
20260508164818 65 79 5.0 13.0 0.00 0.00 0.00 98 915.0
20260508164318 65 71 0.0 13.0 0.00 0.00 0.00 98 915.1
20260508164219 66 76 12.0 19.0 0.00 0.00 0.00 98 915.1
20260508162818 66 67 12.0 19.0 0.00 0.00 0.00 98 915.3
20260508162419 67 96 9.0 12.0 0.00 0.00 0.00 98 915.2
20260508162318 67 90 7.0 11.0 0.00 0.00 0.00 98 915.3
20260508161819 67 76 9.0 11.0 0.00 0.00 0.00 98 915.4
20260508161318 67 52 9.0 11.0 0.00 0.00 0.00 98 915.4
20260508161219 67 70 6.0 11.0 0.00 0.00 0.00 99 915.4
20260508155318 68 76 1.0 11.0 0.00 0.00 0.00 98 915.6
20260508154819 68 65 9.0 13.0 0.00 0.00 0.00 98 915.6
20260508154817 68 46 9.0 13.0 0.00 0.00 0.00 98 915.7
20260508154317 68 62 11.0 15.0 0.00 0.00 0.00 98 915.7
20260508154220 68 59 10.0 15.0 0.00 0.00 0.00 98 915.6
20260508153817 68 65 10.0 15.0 0.00 0.00 0.00 98 915.7
20260508153619 68 51 2.0 13.0 0.00 0.00 0.00 98 915.6
20260508153317 68 57 10.0 13.0 0.00 0.00 0.00 98 915.7
20260508153019 68 79 11.0 16.0 0.00 0.00 0.00 98 915.7
20260508152818 68 67 12.0 16.0 0.00 0.00 0.00 98 915.6
20260508152420 68 51 9.0 16.0 0.00 0.00 0.00 98 915.6
20260508152317 68 68 2.0 14.0 0.00 0.00 0.00 98 915.7
20260508151819 68 47 12.0 15.0 0.00 0.00 0.00 98 915.7
20260508151817 68 61 12.0 15.0 0.00 0.00 0.00 98 915.7
20260508151317 68 59 12.0 15.0 0.00 0.00 0.00 98 915.8
20260508151218 68 54 12.0 15.0 0.00 0.00 0.00 98 915.8
20260508150817 68 52 12.0 14.0 0.00 0.00 0.00 98 915.8
20260508150618 68 82 7.0 14.0 0.00 0.00 0.00 98 915.9
20260508150317 68 64 12.0 15.0 0.00 0.00 0.00 98 915.9
20260508150018 68 60 12.0 15.0 0.00 0.00 0.00 98 915.8
20260508145817 67 64 13.0 15.0 0.00 0.00 0.00 98 915.8
20260508145418 67 52 6.0 12.0 0.00 0.00 0.00 99 915.9
20260508145317 67 58 1.0 12.0 0.00 0.00 0.00 99 916.1
20260508144317 68 46 12.0 14.0 0.00 0.00 0.00 98 916.0
20260508144218 68 59 12.0 14.0 0.00 0.00 0.00 98 916.1
20260508141818 68 45 8.0 10.0 0.00 0.00 0.00 98 916.2
20260508141316 68 49 8.0 10.0 0.00 0.00 0.00 98 916.1
20260508141218 68 32 8.0 10.0 0.00 0.00 0.00 98 916.1
20260508140817 68 50 8.0 11.0 0.00 0.00 0.00 98 916.1
20260508140618 68 55 7.0 11.0 0.00 0.00 0.00 98 916.0
20260508140317 68 58 9.0 11.0 0.00 0.00 0.00 98 916.0
20260508140018 68 49 5.0 9.0 0.00 0.00 0.00 98 916.1
20260508135817 68 46 3.0 9.0 0.00 0.00 0.00 98 916.1
20260508135418 68 36 7.0 10.0 0.00 0.00 0.00 98 916.0
20260508135316 68 45 7.0 10.0 0.00 0.00 0.00 98 916.1
20260508134818 68 18 3.0 8.0 0.00 0.00 0.00 98 916.0
20260508134816 68 19 3.0 8.0 0.00 0.00 0.00 98 916.0
20260508134318 68 40 7.0 9.0 0.00 0.00 0.00 98 915.9
20260508134218 68 35 7.0 9.0 0.00 0.00 0.00 98 915.9
20260508133817 68 38 7.0 8.0 0.00 0.00 0.00 98 915.8
20260508133618 68 48 7.0 8.0 0.00 0.00 0.00 98 915.8
20260508133317 68 52 7.0 8.0 0.00 0.00 0.00 98 915.8
20260508132816 68 51 7.0 8.0 0.00 0.00 0.00 98 915.7
20260508132418 68 35 7.0 8.0 0.00 0.00 0.00 98 915.7
20260508132316 68 56 7.0 8.0 0.00 0.00 0.00 98 915.8
20260508131818 68 67 2.0 8.0 0.00 0.00 0.00 98 915.8
20260508131816 68 49 2.0 8.0 0.00 0.00 0.00 98 915.8
20260508131316 68 40 6.0 8.0 0.00 0.00 0.00 98 915.7
20260508131217 68 25 3.0 8.0 0.00 0.00 0.00 98 915.8
20260508130816 68 48 5.0 7.0 0.00 0.00 0.00 98 915.8
20260508130617 68 45 5.0 6.0 0.00 0.00 0.00 98 915.8
20260508130317 68 28 0.0 5.0 0.00 0.00 0.00 98 915.8
20260508130017 68 25 5.0 7.0 0.00 0.00 0.00 98 915.8
20260508125816 68 35 2.0 5.0 0.00 0.00 0.00 98 915.8
20260508125417 68 26 2.0 4.0 0.00 0.00 0.00 98 915.7
20260508125316 68 27 1.0 4.0 0.00 0.00 0.00 98 915.7
20260508124818 68 34 3.0 5.0 0.00 0.00 0.00 98 915.7
20260508124816 68 32 3.0 5.0 0.00 0.00 0.00 98 915.7
20260508124316 68 55 3.0 6.0 0.00 0.00 0.00 99 915.6
20260508124217 68 63 0.0 5.0 0.00 0.00 0.00 99 915.6
20260508122316 68 56 4.0 7.0 0.00 0.00 0.00 98 915.3
20260508121817 68 26 5.0 7.0 0.00 0.00 0.00 98 915.3
20260508121217 68 28 3.0 7.0 0.00 0.00 0.00 97 915.3
20260508120816 68 27 5.0 8.0 0.00 0.00 0.00 98 915.1
20260508120617 68 44 6.0 8.0 0.00 0.00 0.00 97 915.1
20260508120316 68 55 5.0 7.0 0.00 0.00 0.00 97 914.9
20260508115816 68 37 5.0 7.0 0.00 0.00 0.00 97 914.8
20260508115418 68 38 5.0 7.0 0.00 0.00 0.00 97 914.9
20260508115316 68 63 4.0 7.0 0.00 0.00 0.00 97 914.9
20260508114817 68 73 2.0 6.0 0.00 0.00 0.00 98 914.9
20260508114315 68 50 3.0 5.0 0.00 0.00 0.00 97 914.8
20260508114217 68 79 2.0 5.0 0.00 0.00 0.00 97 914.9
20260508113815 68 12 2.0 5.0 0.00 0.00 0.00 97 914.8
20260508113617 68 57 3.0 5.0 0.00 0.00 0.00 97 914.8
20260508113316 68 42 2.0 4.0 0.00 0.00 0.00 97 914.9
20260508112815 68 40 2.0 3.0 0.00 0.00 0.00 97 914.8
20260508112417 68 65 1.0 3.0 0.00 0.00 0.00 97 914.8
20260508112315 68 38 3.0 5.0 0.00 0.00 0.00 97 914.8
20260508111817 68 40 3.0 5.0 0.00 0.00 0.00 97 914.7
20260508111815 68 43 3.0 5.0 0.00 0.00 0.00 97 914.7
20260508111315 68 20 4.0 6.0 0.00 0.00 0.00 97 914.7
20260508110815 68 10 5.0 6.0 0.00 0.00 0.00 97 914.6
20260508110617 68 51 4.0 5.0 0.00 0.00 0.00 97 914.6
20260508110316 68 41 4.0 5.0 0.00 0.00 0.00 97 914.5
20260508110017 68 53 5.0 6.0 0.00 0.00 0.00 97 914.5
20260508105817 68 51 4.0 6.0 0.00 0.00 0.00 97 914.5
20260508105416 68 45 4.0 6.0 0.00 0.00 0.00 97 914.5
20260508105315 68 46 4.0 6.0 0.00 0.00 0.00 97 914.5
20260508104817 68 61 1.0 6.0 0.00 0.00 0.00 97 914.4
20260508104315 68 44 6.0 7.0 0.00 0.00 0.00 97 914.2
20260508104216 68 52 5.0 7.0 0.00 0.00 0.00 97 914.3
20260508103815 68 54 4.0 6.0 0.00 0.00 0.00 97 914.3
20260508103616 68 45 4.0 6.0 0.00 0.00 0.00 97 914.3
20260508103315 68 24 4.0 5.0 0.00 0.00 0.00 97 914.3
20260508103016 68 35 3.0 4.0 0.00 0.00 0.00 97 914.3
20260508102815 68 44 1.0 3.0 0.00 0.00 0.00 97 914.3
20260508102416 68 39 1.0 3.0 0.00 0.00 0.00 97 914.2
20260508102315 68 68 0.0 3.0 0.00 0.00 0.00 97 914.2
20260508101817 68 70 0.0 4.0 0.00 0.00 0.00 96 914.1
20260508101815 68 72 0.0 4.0 0.00 0.00 0.00 96 914.1
20260508101315 68 55 4.0 6.0 0.00 0.00 0.00 96 914.1
20260508101216 68 40 3.0 5.0 0.00 0.00 0.00 96 914.1
20260508100616 69 41 2.0 3.0 0.00 0.00 0.00 96 914.1
20260508100016 69 30 2.0 5.0 0.00 0.00 0.00 96 914.0
20260508095416 69 58 4.0 5.0 0.00 0.00 0.00 96 913.9
20260508094816 69 55 1.0 5.0 0.00 0.00 0.00 96 913.8
20260508094314 69 28 2.0 3.0 0.00 0.00 0.00 95 913.9
20260508094216 69 31 1.0 3.0 0.00 0.00 0.00 95 913.9
20260508093815 69 44 3.0 4.0 0.00 0.00 0.00 95 913.8
20260508093616 70 77 4.0 4.0 0.00 0.00 0.00 95 913.7
20260508093315 70 56 0.0 4.0 0.00 0.00 0.00 95 913.6
20260508093016 70 45 4.0 4.0 0.00 0.00 0.00 94 913.6
20260508092815 70 47 4.0 4.0 0.00 0.00 0.00 94 913.7
20260508092417 70 54 3.0 4.0 0.00 0.00 0.00 93 913.7
20260508092314 70 47 4.0 4.0 0.00 0.00 0.00 93 913.7
20260508091817 70 64 1.0 3.0 0.00 0.00 0.00 93 913.8
20260508091815 70 65 1.0 3.0 0.00 0.00 0.00 93 913.8
20260508091315 70 23 1.0 2.0 0.00 0.00 0.00 93 913.8
20260508091218 70 14 0.0 0.0 0.00 0.00 0.00 93 913.8
20260508090814 70 40 2.0 4.0 0.00 0.00 0.00 93 913.8
20260508090616 69 318 2.0 4.0 0.00 0.00 0.00 93 913.8
20260508090314 69 347 2.0 4.0 0.00 0.00 0.00 94 913.8
20260508090015 69 357 2.0 4.0 0.00 0.00 0.00 94 913.7
20260508085814 69 26 2.0 3.0 0.00 0.00 0.00 94 913.7
20260508083316 69 352 3.0 5.0 0.00 0.00 0.00 95 913.7
20260508083016 69 343 2.0 4.0 0.00 0.00 0.00 95 913.7
20260508082814 69 6 1.0 3.0 0.00 0.00 0.00 96 913.6
20260508082415 69 353 3.0 6.0 0.00 0.00 0.00 95 913.6
20260508082314 69 349 3.0 6.0 0.00 0.00 0.00 95 913.7
20260508081816 69 11 0.0 0.0 0.00 0.00 0.00 96 913.7
20260508081314 69 337 1.0 3.0 0.00 0.00 0.00 96 913.7
20260508081215 69 11 4.0 6.0 0.00 0.00 0.00 96 913.7
20260508080814 69 21 3.0 5.0 0.00 0.00 0.00 96 913.7
20260508080615 69 42 1.0 4.0 0.00 0.00 0.00 96 913.7
20260508080314 69 41 2.0 4.0 0.00 0.00 0.00 96 913.7
20260508080015 69 354 2.0 4.0 0.00 0.00 0.00 95 913.8
20260508075814 69 360 2.0 4.0 0.00 0.00 0.00 95 913.8
20260508075415 69 345 0.0 4.0 0.00 0.00 0.00 95 913.9
20260508075314 69 353 1.0 4.0 0.00 0.00 0.00 95 913.8
20260508074814 69 30 0.0 2.0 0.00 0.00 0.00 95 913.8
20260508074315 69 346 3.0 5.0 0.00 0.00 0.00 95 913.9
20260508074215 69 360 3.0 5.0 0.00 0.00 0.00 95 913.9
20260508073813 69 358 3.0 4.0 0.00 0.00 0.00 95 913.8
20260508073315 69 19 2.0 4.0 0.00 0.00 0.00 95 913.9
20260508073015 69 17 2.0 4.0 0.00 0.00 0.00 95 913.9
20260508072813 69 27 1.0 3.0 0.00 0.00 0.00 95 913.9
20260508072415 69 32 2.0 4.0 0.00 0.00 0.00 95 913.9
20260508072313 69 31 1.0 2.0 0.00 0.00 0.00 95 913.9
20260508071815 69 99 0.0 1.0 0.00 0.00 0.00 95 913.9
20260508071813 69 97 0.0 1.0 0.00 0.00 0.00 95 913.9
20260508071313 69 13 1.0 2.0 0.00 0.00 0.00 95 913.9
20260508071215 69 20 1.0 2.0 0.00 0.00 0.00 95 913.9
20260508070813 69 4 0.0 2.0 0.00 0.00 0.00 95 913.9
20260508070615 69 29 1.0 3.0 0.00 0.00 0.00 96 913.9
20260508070316 69 62 2.0 4.0 0.00 0.00 0.00 96 914.0
20260508070015 69 62 2.0 3.0 0.00 0.00 0.00 96 914.0
20260508065813 69 64 2.0 3.0 0.00 0.00 0.00 96 914.0
20260508065415 69 6 0.0 1.0 0.00 0.00 0.00 96 914.1
20260508065313 69 40 1.0 2.0 0.00 0.00 0.00 96 914.1
20260508064813 69 53 1.0 2.0 0.00 0.00 0.00 96 914.1
20260508064313 69 36 1.0 2.0 0.00 0.00 0.00 96 914.1
20260508064215 69 10 1.0 2.0 0.00 0.00 0.00 96 914.1
20260508063813 68 44 0.0 2.0 0.00 0.00 0.00 96 914.2
20260508063614 68 42 1.0 4.0 0.00 0.00 0.00 96 914.2
20260508063316 69 49 2.0 4.0 0.00 0.00 0.00 96 914.3
20260508063014 69 65 2.0 3.0 0.00 0.00 0.00 96 914.3
20260508062813 69 60 0.0 3.0 0.00 0.00 0.00 96 914.3
20260508062415 69 52 2.0 3.0 0.00 0.00 0.00 96 914.3
20260508062313 69 54 2.0 3.0 0.00 0.00 0.00 96 914.3
20260508061815 69 68 2.0 3.0 0.00 0.00 0.00 96 914.3
20260508061813 69 71 2.0 3.0 0.00 0.00 0.00 96 914.3
20260508061313 69 47 2.0 3.0 0.00 0.00 0.00 96 914.4
20260508061214 69 61 2.0 3.0 0.00 0.00 0.00 96 914.4
20260508060813 69 61 1.0 3.0 0.00 0.00 0.00 96 914.4
20260508060614 69 19 2.0 3.0 0.00 0.00 0.00 96 914.5
20260508060316 69 51 0.0 3.0 0.00 0.00 0.00 96 914.5
20260508060014 69 66 2.0 3.0 0.00 0.00 0.00 96 914.4
20260508055813 69 53 1.0 3.0 0.00 0.00 0.00 96 914.5
20260508055416 69 66 2.0 4.0 0.00 0.00 0.00 96 914.5
20260508055313 69 35 2.0 4.0 0.00 0.00 0.00 96 914.5
20260508054818 69 65 0.0 0.0 0.00 0.00 0.00 96 914.5
20260508054313 69 121 2.0 3.0 0.00 0.00 0.00 95 914.5
20260508054214 69 55 2.0 3.0 0.00 0.00 0.00 96 914.5
20260508053813 69 34 2.0 3.0 0.00 0.00 0.00 95 914.6
20260508053614 69 76 1.0 2.0 0.00 0.00 0.00 95 914.6
20260508053313 70 83 1.0 2.0 0.00 0.00 0.00 95 914.6
20260508053014 70 115 0.0 1.0 0.00 0.00 0.00 95 914.7
20260508052813 70 61 2.0 3.0 0.00 0.00 0.00 95 914.7
20260508052414 70 90 0.0 2.0 0.00 0.00 0.00 94 914.6
20260508051814 71 185 1.0 3.0 0.00 0.00 0.00 95 914.7
20260508051215 70 175 1.0 3.0 0.00 0.00 0.00 95 914.8
20260508050812 69 360 0.0 3.0 0.00 0.00 0.00 95 914.8
20260508050614 70 70 0.0 3.0 0.00 0.00 0.00 96 914.8
20260508050014 70 251 1.0 3.0 0.00 0.00 0.00 95 914.9
20260508045812 69 199 1.0 3.0 0.00 0.00 0.00 95 914.9
20260508045414 69 95 1.0 3.0 0.00 0.00 0.00 95 914.9
20260508045314 69 4 0.0 3.0 0.00 0.00 0.00 95 914.9
20260508044814 69 264 2.0 5.0 0.00 0.00 0.00 95 915.0
20260508044812 69 263 2.0 5.0 0.00 0.00 0.00 95 915.0
20260508044312 70 224 1.0 3.0 0.00 0.00 0.00 94 915.0
20260508044213 70 188 0.0 2.0 0.00 0.00 0.00 94 915.0
20260508043812 70 186 1.0 5.0 0.00 0.00 0.00 94 915.1
20260508043614 70 176 1.0 6.0 0.00 0.00 0.00 94 915.1
20260508043312 70 108 2.0 6.0 0.00 0.00 0.00 93 915.2
20260508043013 70 181 3.0 6.0 0.00 0.00 0.00 94 915.2
20260508042812 70 97 0.0 6.0 0.00 0.00 0.00 94 915.2
20260508042313 70 213 0.0 1.0 0.00 0.00 0.00 94 915.2
20260508041814 70 16 1.0 3.0 0.00 0.00 0.00 93 915.3
20260508041213 70 12 2.0 3.0 0.00 0.00 0.00 93 915.3
20260508040613 70 39 1.0 5.0 0.00 0.00 0.00 93 915.3
20260508040312 71 21 3.0 5.0 0.00 0.00 0.00 92 915.3
20260508040013 71 82 3.0 5.0 0.00 0.00 0.00 92 915.3
20260508035812 71 158 1.0 4.0 0.00 0.00 0.00 92 915.3
20260508035413 71 65 1.0 4.0 0.00 0.00 0.00 92 915.3
20260508035312 71 105 0.0 4.0 0.00 0.00 0.00 92 915.3
20260508033812 71 169 2.0 4.0 0.00 0.00 0.00 92 915.4
20260508033613 71 87 0.0 4.0 0.00 0.00 0.00 91 915.4
20260508033013 71 87 4.0 9.0 0.00 0.00 0.00 92 915.4
20260508032812 71 83 6.0 9.0 0.00 0.00 0.00 92 915.4
20260508032413 71 126 4.0 7.0 0.00 0.00 0.00 92 915.4
20260508032311 71 122 3.0 6.0 0.00 0.00 0.00 93 915.4
20260508030811 69 66 0.0 4.0 0.00 0.00 0.00 95 915.7
20260508030613 69 143 0.0 0.0 0.00 0.00 0.00 95 915.8
20260508023311 71 83 1.0 5.0 0.00 0.00 0.00 91 915.9
20260508023012 71 126 0.0 3.0 0.00 0.00 0.00 91 916.0
20260508022811 70 155 0.0 2.0 0.00 0.00 0.00 92 916.1
20260508021813 70 58 0.0 1.0 0.00 0.00 0.00 93 916.1
20260508021311 70 114 1.0 4.0 0.00 0.00 0.00 93 916.1
20260508021212 70 84 0.0 3.0 0.00 0.00 0.00 93 916.1
20260508020811 70 109 0.0 0.0 0.00 0.00 0.00 93 916.1
20260508020612 70 99 0.0 3.0 0.00 0.00 0.00 92 916.1
20260508015412 71 58 1.0 4.0 0.00 0.00 0.00 90 916.2
20260508014813 72 70 3.0 6.0 0.00 0.00 0.00 89 916.1
20260508013012 72 182 1.0 4.0 0.00 0.00 0.00 88 916.2
20260508012412 72 102 1.0 2.0 0.00 0.00 0.00 88 916.2
20260508012311 72 225 1.0 2.0 0.00 0.00 0.00 88 916.2
20260508011811 73 281 3.0 5.0 0.00 0.00 0.00 88 916.1
20260508011311 74 306 3.0 5.0 0.00 0.00 0.00 86 915.9
20260508011212 74 253 3.0 5.0 0.00 0.00 0.00 87 915.9
20260508010612 71 217 2.0 3.0 0.00 0.00 0.00 90 915.9
20260508010311 71 230 2.0 5.0 0.00 0.00 0.00 89 915.8
20260508010012 71 263 3.0 5.0 0.00 0.00 0.00 89 915.7
20260508005810 72 270 2.0 4.0 0.00 0.00 0.00 88 915.8
20260508005412 72 217 2.0 3.0 0.00 0.00 0.00 88 915.7
20260508005310 72 236 1.0 3.0 0.00 0.00 0.00 88 915.7
20260508004812 72 219 1.0 2.0 0.00 0.00 0.00 88 915.7
20260508004810 72 225 1.0 2.0 0.00 0.00 0.00 88 915.7
20260508004310 72 148 2.0 4.0 0.00 0.00 0.00 90 915.7
20260508004212 72 145 2.0 4.0 0.00 0.00 0.00 90 915.7
20260508003810 71 156 0.0 2.0 0.00 0.00 0.00 89 915.7
20260508003611 71 91 1.0 5.0 0.00 0.00 0.00 88 915.7
20260508003310 71 353 0.0 5.0 0.00 0.00 0.00 88 915.7
20260508003012 71 288 3.0 5.0 0.00 0.00 0.00 88 915.7
20260508002811 71 227 2.0 3.0 0.00 0.00 0.00 87 915.6
20260508002412 71 148 0.0 2.0 0.00 0.00 0.00 89 915.6
20260508002310 72 195 2.0 3.0 0.00 0.00 0.00 91 915.6
20260508001812 71 155 0.0 2.0 0.00 0.00 0.00 90 915.6
20260508001810 71 153 0.0 2.0 0.00 0.00 0.00 90 915.5
20260508001310 72 131 1.0 2.0 0.00 0.00 0.00 89 915.6
20260508001211 72 60 1.0 2.0 0.00 0.00 0.00 89 915.6
20260508000810 72 120 0.0 3.0 0.00 0.00 0.00 88 915.6
20260508000611 73 88 1.0 3.0 0.00 0.00 0.00 87 915.6
20260508000312 73 146 1.0 6.0 0.00 0.00 0.00 88 915.5
20260508000011 73 60 1.0 2.0 0.00 0.00 0.00 87 915.5
20260507235811 73 299 2.0 5.0 0.00 0.00 0.00 87 915.5
20260507235411 72 313 1.0 3.0 0.00 0.00 0.00 87 915.5
20260507235310 72 22 1.0 2.0 0.00 0.00 0.00 87 915.4
20260507234811 72 67 3.0 5.0 0.00 0.00 0.00 89 915.3
20260507234311 72 183 0.0 0.0 0.00 0.00 0.00 89 915.3
20260507233810 71 33 2.0 5.0 0.00 0.00 0.00 88 915.2
20260507233611 71 66 2.0 5.0 0.00 0.00 0.00 88 915.1
20260507233310 71 324 2.0 4.0 0.00 0.00 0.00 89 915.1
20260507233011 71 18 1.0 4.0 0.00 0.00 0.00 89 915.1
20260507232810 71 232 1.0 4.0 0.00 0.00 0.00 89 915.1
20260507232411 71 276 0.0 3.0 0.00 0.00 0.00 88 915.1
20260507232310 71 256 1.0 3.0 0.00 0.00 0.00 89 915.0
20260507231812 70 42 1.0 3.0 0.00 0.00 0.00 89 915.0
20260507231810 70 43 1.0 3.0 0.00 0.00 0.00 89 915.0
20260507231310 70 119 1.0 2.0 0.00 0.00 0.00 88 914.9
20260507231211 70 117 1.0 2.0 0.00 0.00 0.00 88 915.0
20260507230810 70 70 0.0 2.0 0.00 0.00 0.00 88 914.9
20260507230611 70 204 0.0 2.0 0.00 0.00 0.00 88 914.9
20260507230309 70 158 0.0 2.0 0.00 0.00 0.00 88 914.9
20260507230011 70 103 0.0 2.0 0.00 0.00 0.00 88 914.8
20260507225809 70 95 0.0 3.0 0.00 0.00 0.00 87 914.8
20260507225411 70 120 1.0 2.0 0.00 0.00 0.00 88 914.8
20260507225309 70 148 1.0 2.0 0.00 0.00 0.00 88 914.8
20260507224809 69 83 1.0 2.0 0.00 0.00 0.00 88 914.7
20260507224309 69 81 1.0 2.0 0.00 0.00 0.00 88 914.7
20260507224211 69 80 1.0 2.0 0.00 0.00 0.00 88 914.7
20260507223611 69 98 1.0 3.0 0.00 0.00 0.00 89 914.6
20260507223309 68 220 1.0 4.0 0.00 0.00 0.00 89 914.5
20260507223011 68 284 2.0 4.0 0.00 0.00 0.00 89 914.5
20260507222809 68 323 2.0 4.0 0.00 0.00 0.00 89 914.4
20260507222309 68 303 3.0 5.0 0.00 0.00 0.00 89 914.4
20260507221809 67 303 3.0 5.0 0.00 0.00 0.00 90 914.4